Regional Weather Roundup
Issued by NWS

Home | Current Version | Previous Version | Graphics & Text | Print | Product List | Glossary On
Versions: 1 2 3 4 5 6 7 8 9 10 11 12 13 14 15 16 17 18 19 20 21 22 23 24 25 26 27 28 29 30 31 32 33 34 35 36 37 38 39 40 41 42 43 44 45 46 47 48 49 50
000
ASUS43 KFSD 010210
RWRSD

WEATHER ROUNDUP FOR SOUTH DAKOTA
NATIONAL WEATHER SERVICE SIOUX FALLS SD
900 PM CDT SUN APR 30 2017

NOTE: "FAIR" INDICATES FEW OR NO CLOUDS BELOW 12,000 FEET WITH NO
SIGNIFICANT WEATHER AND/OR OBSTRUCTIONS TO VISIBILITY.


SDZ001>005-009-010-012>017-010300-
NORTHWEST AND NORTH CENTRAL SOUTH DAKOTA

CITY           SKY/WX    TMP DP  RH WIND       PRES   REMARKS
BUFFALO          N/A     57  23  26 CALM      29.79S
FAITH            N/A     50  27  40 NE9       29.84S
MOBRIDGE       CLOUDY    53  20  27 E9        29.83R
$$

SDZ012>016-024>037-041>051-057-063-072>074-010300-
SOUTHWEST AND SOUTH CENTRAL SOUTH DAKOTA

CITY           SKY/WX    TMP DP  RH WIND       PRES   REMARKS
RAPID CTY ARPT CLOUDY    46  24  42 N7        29.85S
PIERRE         MOCLDY    48  22  35 NE9       29.81F
CUSTER         CLEAR     42  18  37 NE7       29.87S
ELLSWORTH AFB  CLOUDY    54  22  29 N7        29.85S
PHILIP         CLOUDY    49  28  44 NE8       29.83S
PINE RIDGE     CLOUDY    49  24  37 N7        29.83S
SPEARFISH      FAIR      50  19  29 CALM      29.88S
WINNER         MOCLDY    46  24  42 N8        29.78F
$$

SDZ004>011-016>023-039-040-010300-
NORTHEAST SOUTH DAKOTA

CITY           SKY/WX    TMP DP  RH WIND       PRES   REMARKS
ABERDEEN       CLOUDY    47  24  40 NE7       29.84R
WATERTOWN      CLOUDY    41  33  73 E15       29.78S
BROOKINGS      RAIN      36  34  93 NE14      29.76R
SISSETON         N/A     49  28  44 NE8       29.81F
$$

SDZ017-020-022-023-036>040-048>070-010300-
SOUTHEAST SOUTH DAKOTA

CITY           SKY/WX    TMP DP  RH WIND       PRES   REMARKS
SIOUX FALLS    RAIN      37  37 100 NE18      29.72S FOG
HURON          CLOUDY    45  35  68 NE10      29.80S
CHAMBERLAIN    CLOUDY    49  24  37 N7        29.78F
MITCHELL       LGT RAIN  40  38  93 NE18      29.78F
YANKTON        CLOUDY    36  32  87 N16G23    29.69F
$$

ABBREVIATIONS USED IN REMARKS
   TC - TEMPERATURE IN CELSIUS
  WCI - WIND CHILL INDEX
   HX - HEAT INDEX
  VSB - VISIBILITY





USA.gov is the U.S. government's official web portal to all federal, state and local government web resources and services.